Lid_Strength_Index
11 12 12 13 11 9 9 9 11 10 9 8 7 6 6 6 5 5 5 5 4 4 4 3 3 2 2 2 1 1 2 2 2 1 1 1 1 1 0 1 1 1 1 1
13 11 12 14 11 9 8 8 8 9 9 6 6 5 6 6 5 5 5 5 4 4 3 3 3 3 2 2 2 1 2 2 2 2 2 1 1 1 1 1 1 1 1 1
15 11 13 15 11 9 8 7 8 10 8 6 6 6 6 5 5 5 5 4 4 4 3 3 3 2 2 2 1 1 2 2 2 1 2 2 1 1 1 1 1 1 1 1
16 15 20 10 7 7 8 7 7 7 7 6 6 5 5 5 5 5 4 4 4 3 3 3 2 2 2 2 2 2 2 2 2 1 2 2 2 2 2 1 1 1 1 1
17 17 14 11 11 10 10 10 8 8 7 6 5 6 6 5 4 4 4 3 3 3 2 2 2 2 2 2 2 2 2 2 2 2 2 2 2 2 1 1 2 1 1 1
15 19 21 13 9 7 7 13 7 7 7 7 6 9 8 5 4 4 3 3 3 2 2 2 2 2 2 2 2 2 2 2 1 1 2 2 2 2 1 1 1 1 1 1
15 17 15 10 8 6 15 14 7 6 6 6 8 7 5 4 4 3 3 3 2 2 3 2 2 2 2 2 2 1 1 1 1 1 2 2 1 1 1 2 1 2 2 1
14 16 19 9 8 12 10 7 6 6 5 6 5 5 4 4 4 3 3 3 2 3 3 2 2 2 2 2 1 1 1 1 1 1 1 1 2 1 1 2 2 2 2 2
14 14 9 8 8 7 6 6 5 5 5 4 5 5 4 4 4 3 3 3 2 3 3 2 2 2 2 2 1 1 1 2 2 1 1 1 2 2 2 2 2 3 3 3
12 10 9 8 7 6 5 5 5 4 4 4 5 4 4 4 4 3 3 3 2 3 3 3 2 2 2 1 1 1 2 2 2 2 2 1 1 1 2 2 2 2 3 3
11 9 7 7 7 6 5 5 4 4 4 4 4 4 4 4 4 3 3 2 2 3 3 3 2 2 1 1 1 2 2 2 2 2 2 2 1 1 1 1 3 2 2 2
12 8 8 7 7 5 5 5 4 4 4 3 3 4 3 4 3 3 3 2 2 2 3 2 2 2 1 1 1 2 2 2 2 2 2 2 2 2 11 9 10 11 11 3
8 5 5 5 5 5 5 4 4 4 3 4 3 3 3 3 3 5 3 3 3 2 2 2 2 2 1 1 1 2 2 2 2 2 2 2 2 2 3 5 10 11 10 8
5 5 6 6 6 5 5 4 4 3 3 3 3 3 3 3 3 3 3 3 2 2 2 2 2 2 1 1 1 1 1 6 2 2 2 2 2 2 2 3 3 2 8 6
5 5 5 5 4 5 5 4 5 4 4 4 3 3 3 3 3 3 2 2 2 2 2 2 2 2 1 1 1 1 2 2 1 1 1 2 2 2 2 2 2 2 2 6
5 6 5 5 6 5 5 5 5 5 4 5 4 4 4 3 3 2 2 3 3 3 2 2 2 1 1 1 1 1 1 5 3 1 2 2 2 2 2 2 2 2 2 2
7 7 6 6 6 6 5 5 5 5 4 4 4 4 4 4 3 3 2 2 2 2 2 2 2 1 1 1 1 1 1 1 4 2 2 2 2 2 2 2 2 2 2 2
5 5 5 5 6 6 6 5 5 5 4 4 4 4 4 4 4 3 3 3 2 3 2 2 2 2 1 1 1 1 1 1 2 2 2 2 2 1 2 2 2 2 2 3
4 5 5 5 5 6 6 6 6 5 4 4 3 4 4 4 4 4 2 3 3 4 3 1 8 3 2 2 2 1 1 2 2 2 2 4 2 1 2 2 2 2 2 2
4 4 5 5 5 5 6 6 6 5 5 4 4 3 4 4 4 4 3 3 2 2 3 2 1 2 1 3 8 1 1 2 2 2 2 2 2 2 2 4 2 2 2 2
3 3 4 5 5 4 5 5 6 6 6 6 5 5 4 3 3 3 3 3 2 2 3 5 3 5 4 7 4 1 1 2 2 2 2 2 2 2 2 2 2 2 2 1
3 3 4 4 4 5 5 5 5 5 6 6 6 6 6 5 5 4 3 4 4 9 3 2 3 12 9 13 1 1 1 1 2 2 2 2 2 2 2 2 2 2 1 1
3 3 3 4 4 4 4 4 5 5 6 6 7 7 7 7 6 6 7 5 5 8 5 2 11 15 14 5 2 1 1 2 2 2 2 2 2 2 2 2 2 1 1 1
3 2 2 3 3 4 4 4 4 5 5 6 6 6 7 8 7 7 6 8 11 11 7 5 8 14 16 4 3 2 2 2 2 1 1 7 1 1 1 1 2 1 1 3
3 2 2 3 3 4 3 3 4 4 4 5 5 5 6 6 8 8 7 7 11 9 6 8 11 14 5 3 3 3 2 1 2 2 2 2 2 1 1 1 1 1 1 1
2 3 2 2 3 3 3 4 4 5 5 5 5 6 6 5 6 7 8 10 9 10 8 6 5 5 3 3 3 2 1 1 2 1 2 2 1 2 1 1 1 1 1 1
3 5 2 2 2 2 3 3 4 5 5 5 6 5 6 6 7 7 9 8 9 10 10 9 7 7 6 5 3 2 2 1 5 1 1 1 2 2 2 1 1 1 1 1